Simultaneous Nadir Overpasses (SNOs) Predictions

Prediction of SNOs between LANDSAT-8 and METOP-B Satellite Orbit:

Table of predicted SNOs for the next 14.0 days since TLE Epoch: 2/1/2020
Index Date (LANDSAT-8) Time (LANDSAT-8) Lat,Lon (LANDSAT-8) SZA (LANDSAT-8 ) Date (METOP-B) Time (METOP-B) Lat,Lon (METOP-B) SZA (METOP-B ) Distance(km) Time Diff (sec)
1 02/03/2020 02:28:42 -81.09, 1.97 80.64 02/03/2020 02:27:36 -81.08, 2.05 80.65 1.28 66
2 02/03/2020 03:18:08 81.09, 169.68 99.37 02/03/2020 03:18:16 81.09, 169.51 99.36 2.96 8
3 02/05/2020 22:02:55 -81.09, 68.44 81.47 02/05/2020 22:01:59 -81.08, 68.32 81.51 2.13 56
4 02/05/2020 22:52:20 81.11,-123.52 98.58 02/05/2020 22:52:37 81.11,-123.50 98.58 0.52 17
5 02/08/2020 17:37:09 -81.09, 134.87 82.35 02/08/2020 17:36:22 -81.09, 134.96 82.36 1.55 47
6 02/08/2020 18:26:34 81.11, -57.11 97.70 02/08/2020 18:27:01 81.10, -57.27 97.69 2.87 27
7 02/11/2020 13:11:23 -81.08,-158.73 83.26 02/11/2020 13:10:46 -81.08,-158.79 83.28 1.05 37
8 02/11/2020 14:00:48 81.11, 9.27 96.78 02/11/2020 14:01:24 81.11, 9.33 96.81 1.11 36
9 02/14/2020 08:45:36 -81.08, -92.36 84.21 02/14/2020 08:45:09 -81.08, -92.55 84.23 3.29 27




NCC Satellite Simultaneous Nadir Overpasses (SNOs) Prediction Service
